TimeCDT,TemperatureF,Dew PointF,Humidity,Sea Level PressureIn,VisibilityMPH,Wind Direction,Wind SpeedMPH,Gust SpeedMPH,PrecipitationIn,Events,Conditions,WindDirDegrees,DateUTC
12:14 AM,53.6,53.6,100,30.24,2.5,Calm,Calm,-,N/A,,Clear,0,2012-10-05 05:14:00
12:56 AM,52.9,52.9,100,30.24,2.5,Calm,Calm,-,N/A,,Clear,0,2012-10-05 05:56:00
1:14 AM,53.6,53.6,100,30.24,3.0,Calm,Calm,-,N/A,,Clear,0,2012-10-05 06:14:00
1:56 AM,52.9,52.9,100,30.24,3.0,Calm,Calm,-,N/A,,Clear,0,2012-10-05 06:56:00
2:22 AM,53.6,53.6,100,30.22,2.5,Calm,Calm,-,N/A,,Clear,0,2012-10-05 07:22:00
2:31 AM,53.6,53.6,100,30.22,3.0,Calm,Calm,-,N/A,,Clear,0,2012-10-05 07:31:00
2:56 AM,52.9,52.9,100,30.22,4.0,Calm,Calm,-,N/A,,Clear,0,2012-10-05 07:56:00
3:30 AM,51.8,51.8,100,30.21,2.0,Calm,Calm,-,N/A,,Clear,0,2012-10-05 08:30:00
3:56 AM,50.9,50.9,100,30.21,4.0,Calm,Calm,-,N/A,,Clear,0,2012-10-05 08:56:00
4:13 AM,51.8,51.8,100,30.21,2.5,Calm,Calm,-,N/A,,Clear,0,2012-10-05 09:13:00
4:43 AM,51.8,51.8,100,30.21,5.0,Calm,Calm,-,N/A,,Clear,0,2012-10-05 09:43:00
4:56 AM,50.0,50.0,100,30.22,3.0,Calm,Calm,-,N/A,,Clear,0,2012-10-05 09:56:00
5:03 AM,51.8,51.8,100,30.21,2.0,Calm,Calm,-,N/A,,Clear,0,2012-10-05 10:03:00
5:32 AM,51.8,51.8,100,30.21,5.0,Calm,Calm,-,N/A,,Clear,0,2012-10-05 10:32:00
5:56 AM,50.9,50.9,100,30.22,2.5,Calm,Calm,-,N/A,,Clear,0,2012-10-05 10:56:00
6:21 AM,50.0,50.0,100,30.21,1.5,Calm,Calm,-,N/A,,Clear,0,2012-10-05 11:21:00
6:56 AM,50.0,50.0,100,30.22,1.5,Calm,Calm,-,N/A,,Clear,0,2012-10-05 11:56:00
7:02 AM,51.8,51.8,100,30.21,3.0,Calm,Calm,-,N/A,,Clear,0,2012-10-05 12:02:00
7:12 AM,53.6,53.6,100,30.21,1.8,Calm,Calm,-,N/A,,Clear,0,2012-10-05 12:12:00
7:21 AM,53.6,53.6,100,30.21,2.0,Calm,Calm,-,N/A,,Clear,0,2012-10-05 12:21:00
7:35 AM,55.4,55.4,100,30.21,3.0,Calm,Calm,-,N/A,,Clear,0,2012-10-05 12:35:00
7:56 AM,56.8,56.8,100,30.22,6.0,Calm,Calm,-,N/A,,Clear,0,2012-10-05 12:56:00
8:56 AM,64.9,61.0,87,30.22,10.0,Calm,Calm,-,N/A,,Clear,0,2012-10-05 13:56:00
9:56 AM,70.0,61.9,75,30.20,10.0,SSE,6.9,-,N/A,,Clear,160,2012-10-05 14:56:00
10:56 AM,74.8,61.9,64,30.19,10.0,South,8.1,-,N/A,,Partly Cloudy,190,2012-10-05 15:56:00
11:56 AM,75.9,59.0,56,30.17,10.0,SSW,10.4,-,N/A,,Scattered Clouds,210,2012-10-05 16:56:00
12:56 PM,75.9,59.0,56,30.14,10.0,South,10.4,-,N/A,,Partly Cloudy,190,2012-10-05 17:56:00
1:56 PM,77.9,57.9,50,30.10,10.0,SSE,8.1,-,N/A,,Partly Cloudy,160,2012-10-05 18:56:00
2:56 PM,77.9,57.9,50,30.07,10.0,South,9.2,-,N/A,,Partly Cloudy,190,2012-10-05 19:56:00
3:56 PM,77.9,56.8,48,30.05,10.0,SSW,12.7,-,N/A,,Clear,200,2012-10-05 20:56:00
4:56 PM,75.9,56.8,51,30.05,10.0,SSW,9.2,-,N/A,,Clear,200,2012-10-05 21:56:00
5:56 PM,70.9,57.9,63,30.04,10.0,Calm,Calm,-,N/A,,Partly Cloudy,0,2012-10-05 22:56:00
6:56 PM,61.9,56.8,84,30.05,10.0,Calm,Calm,-,N/A,,Clear,0,2012-10-05 23:56:00
7:56 PM,57.9,56.8,96,30.04,10.0,Calm,Calm,-,N/A,,Clear,0,2012-10-06 00:56:00
8:56 PM,57.9,56.8,96,30.03,10.0,Calm,Calm,-,N/A,,Clear,0,2012-10-06 01:56:00
9:56 PM,61.0,59.0,93,30.03,10.0,SW,4.6,-,N/A,,Clear,230,2012-10-06 02:56:00
10:56 PM,61.0,59.9,96,30.00,10.0,Calm,Calm,-,N/A,,Clear,0,2012-10-06 03:56:00
11:56 PM,65.8,57.9,76,29.98,10.0,Calm,Calm,-,N/A,,Clear,0,2012-10-06 04:56:00